Weather History for Sparta, TN

Change the Weather History Date:

Thursday, September 6, 2012

  Actual Average (KCSV) Record (KCSV)
Temperature  
Mean Temperature 76 °F 71 °F  
Max Temperature 87 °F 81 °F 98 °F (1954)
Min Temperature 66 °F 61 °F 46 °F (1988)
Degree Days  
Heating Degree Days 0    
Month to date heating degree days  
Since 1 July heating degree days  
Cooling Degree Days 12    
Month to date cooling degree days  
Year to date cooling degree days  
Growing Degree Days 26 (Base 50)    
Moisture  
Dew Point 70 °F    
Average Humidity 87    
Maximum Humidity 100    
Minimum Humidity 58    
Precipitation  
Precipitation 0.00 in 0.12 in 0.83 in (2011)
Month to date precipitation 0.72  
Year to date precipitation 38.84  
Sea Level Pressure  
Sea Level Pressure 29.98 in    
Wind  
Wind Speed 0 mph ()    
Max Wind Speed 4 mph    
Max Gust Speed -    
Visibility 9.3 miles    
Events      
T = Trace of Precipitation, MM = Missing Value Source: Averaged Metar Reports

Daily Weather History Graph

Daily Weather History Graph

Search for Another Location

Airport:

Trip Planner

Search our weather history database for the weather conditions in past years. The results will help you decide how hot, cold, wet, or windy it might be!

Date:

Astronomy

Sep. 06, 2012 Rise Set
Actual Time 6:18 AM CDT 7:01 PM CDT
Civil Twilight 5:52 AM CDT 7:27 PM CDT
Nautical Twilight 5:21 AM CDT 7:58 PM CDT
Astronomical Twilight 4:49 AM CDT 8:29 PM CDT
Moon 10:24 PM CDT (9/6) 12:04 PM CDT (9/6)
Length of Visible Light 13h 35m
Length of Day
12h 43m
Waning Gibbous, 67% of the Moon is Illuminated
Sep 6
Waning Gibbous
Sep 8
Last Quarter
Sep 15
New
Sep 22
First Quarter
Sep 29
Full

Hourly Weather History & Observations

Time (CDT) Temp. Heat Index Dew Point Humidity Pressure Visibility Wind Dir Wind Speed Gust Speed Precip Events Conditions
12:35 AM 68.0 °F - 68.0 °F 100% 29.94 in 10.0 mi Calm Calm - N/A   Clear
12:55 AM 68.0 °F - 68.0 °F 100% 29.92 in 10.0 mi Calm Calm - N/A   Clear
1:55 AM 68.0 °F - 68.0 °F 100% 29.94 in 9.0 mi Calm Calm - N/A   Scattered Clouds
2:15 AM 68.0 °F - 68.0 °F 100% 29.94 in 10.0 mi Calm Calm - N/A   Overcast
2:35 AM 68.0 °F - 68.0 °F 100% 29.94 in 10.0 mi Calm Calm - N/A   Partly Cloudy
2:55 AM 68.0 °F - 68.0 °F 100% 29.93 in 10.0 mi Calm Calm - N/A   Clear
3:15 AM 68.0 °F - 68.0 °F 100% 29.93 in 10.0 mi Calm Calm - N/A   Clear
3:35 AM 68.0 °F - 68.0 °F 100% 29.94 in 10.0 mi Calm Calm - N/A   Clear
3:55 AM 68.0 °F - 68.0 °F 100% 29.94 in 10.0 mi Calm Calm - N/A   Clear
4:15 AM 68.0 °F - 68.0 °F 100% 29.94 in 9.0 mi Calm Calm - N/A   Clear
4:35 AM 68.0 °F - 68.0 °F 100% 29.94 in 8.0 mi Calm Calm - N/A   Clear
4:55 AM 68.0 °F - 68.0 °F 100% 29.95 in 8.0 mi Calm Calm - N/A   Clear
5:15 AM 68.0 °F - 68.0 °F 100% 29.95 in 9.0 mi Calm Calm - N/A   Clear
5:35 AM 68.0 °F - 68.0 °F 100% 29.96 in 10.0 mi Calm Calm - N/A   Clear
5:55 AM 68.0 °F - 68.0 °F 100% 29.97 in 5.0 mi Calm Calm - N/A   Scattered Clouds
6:35 AM 66.2 °F - 66.2 °F 100% 29.99 in 6.0 mi Calm Calm - N/A   Overcast
6:55 AM 68.0 °F - 68.0 °F 100% 30.00 in 6.0 mi Calm Calm - N/A   Unknown
7:15 AM 68.0 °F - 68.0 °F 100% 30.01 in 6.0 mi Calm Calm - N/A   Overcast
7:35 AM 68.0 °F - 68.0 °F 100% 30.01 in 9.0 mi Calm Calm - N/A   Unknown
7:55 AM 69.8 °F - 69.8 °F 100% 30.01 in 7.0 mi Calm Calm - N/A   Overcast
8:15 AM 69.8 °F - 69.8 °F 100% 30.02 in 6.0 mi Calm Calm - N/A   Unknown
9:15 AM 73.4 °F - 71.6 °F 94% 30.03 in 10.0 mi Calm Calm - N/A   Mostly Cloudy
9:35 AM 73.4 °F - 71.6 °F 94% 30.03 in 10.0 mi ENE 3.5 mph - N/A   Overcast
9:55 AM 75.2 °F - 71.6 °F 89% 30.04 in 10.0 mi Calm Calm - N/A   Overcast
10:15 AM 75.2 °F - 71.6 °F 89% 30.04 in 10.0 mi Calm Calm - N/A   Overcast
10:35 AM 75.2 °F - 69.8 °F 83% 30.04 in 10.0 mi Calm Calm - N/A   Mostly Cloudy
10:55 AM 77.0 °F - 71.6 °F 83% 30.03 in 10.0 mi Calm Calm - N/A   Scattered Clouds
11:15 AM 78.8 °F - 71.6 °F 78% 30.03 in 10.0 mi Calm Calm - N/A   Clear
11:35 AM 80.6 °F 84.6 °F 71.6 °F 74% 30.03 in 10.0 mi Calm Calm - N/A   Partly Cloudy
11:55 AM 80.6 °F 84.6 °F 71.6 °F 74% 30.02 in 10.0 mi Calm Calm - N/A   Mostly Cloudy
12:15 PM 80.6 °F 84.6 °F 71.6 °F 74% 30.02 in 10.0 mi Calm Calm - N/A   Partly Cloudy
12:35 PM 82.4 °F 86.3 °F 69.8 °F 66% 30.01 in 10.0 mi Calm Calm - N/A   Clear
12:55 PM 82.4 °F 87.2 °F 71.6 °F 70% 30.01 in 2.5 mi Calm Calm - N/A   Clear
1:15 PM 82.4 °F 87.2 °F 71.6 °F 70% 30.00 in 8.0 mi Calm Calm - N/A   Clear
1:35 PM 84.2 °F 88.4 °F 69.8 °F 62% 30.00 in 10.0 mi Calm Calm - N/A   Clear
1:55 PM 84.2 °F 89.6 °F 71.6 °F 66% 29.99 in 10.0 mi SSW 3.5 mph - N/A   Clear
2:15 PM 84.2 °F 89.6 °F 71.6 °F 66% 29.99 in 10.0 mi West 3.5 mph - N/A   Clear
2:35 PM 86.0 °F 91.8 °F 71.6 °F 62% 29.98 in 10.0 mi West 3.5 mph - N/A   Clear
2:55 PM 86.0 °F 91.8 °F 71.6 °F 62% 29.98 in 10.0 mi Calm Calm - N/A   Clear
3:15 PM 86.0 °F 91.8 °F 71.6 °F 62% 29.97 in 10.0 mi Calm Calm - N/A   Clear
3:35 PM 86.0 °F 91.8 °F 71.6 °F 62% 29.96 in 10.0 mi Calm Calm - N/A   Clear
3:55 PM 87.8 °F 93.8 °F 71.6 °F 58% 29.96 in 10.0 mi Calm Calm - N/A   Clear
4:15 PM 87.8 °F 93.8 °F 71.6 °F 58% 29.96 in 10.0 mi Calm Calm - N/A   Clear
4:35 PM 86.0 °F 91.8 °F 71.6 °F 62% 29.95 in 10.0 mi Calm Calm - N/A   Clear
4:55 PM 87.8 °F 95.6 °F 73.4 °F 62% 29.95 in 10.0 mi Calm Calm - N/A   Clear
5:15 PM 86.0 °F 93.4 °F 73.4 °F 66% 29.95 in 10.0 mi Calm Calm - N/A   Clear
5:35 PM 86.0 °F 93.4 °F 73.4 °F 66% 29.95 in 10.0 mi NW 3.5 mph - N/A   Clear
5:55 PM 84.2 °F 90.9 °F 73.4 °F 70% 29.95 in 10.0 mi Calm Calm - N/A   Clear
6:15 PM 84.2 °F 90.9 °F 73.4 °F 70% 29.96 in 10.0 mi Calm Calm - N/A   Clear
6:35 PM 82.4 °F 87.2 °F 71.6 °F 70% 29.97 in 10.0 mi Calm Calm - N/A   Clear
6:55 PM 78.8 °F - 73.4 °F 83% 29.97 in 10.0 mi Calm Calm - N/A   Clear
7:15 PM 75.2 °F - 73.4 °F 94% 29.97 in 10.0 mi Calm Calm - N/A   Clear
7:35 PM 73.4 °F - 71.6 °F 94% 29.97 in 10.0 mi Calm Calm - N/A   Clear
7:55 PM 71.6 °F - 71.6 °F 100% 29.98 in 10.0 mi Calm Calm - N/A   Clear
8:15 PM 71.6 °F - 71.6 °F 100% 29.98 in 10.0 mi Calm Calm - N/A   Clear
8:35 PM 71.6 °F - 71.6 °F 100% 29.99 in 10.0 mi Calm Calm - N/A   Clear
8:55 PM 69.8 °F - 69.8 °F 100% 29.99 in 10.0 mi Calm Calm - N/A   Clear
9:15 PM 69.8 °F - 69.8 °F 100% 30.00 in 10.0 mi Calm Calm - N/A   Clear
9:35 PM 69.8 °F - 69.8 °F 100% 30.00 in 10.0 mi ENE 3.5 mph - N/A   Clear
9:55 PM 71.6 °F - 71.6 °F 100% 30.00 in 10.0 mi East 3.5 mph - N/A   Clear
10:15 PM 69.8 °F - 69.8 °F 100% 30.00 in 9.0 mi Calm Calm - N/A   Clear
10:35 PM 69.8 °F - 69.8 °F 100% 30.00 in 9.0 mi Calm Calm - N/A   Clear
11:15 PM 69.8 °F - 69.8 °F 100% 30.00 in 8.0 mi Calm Calm - N/A   Clear
11:35 PM 69.8 °F - 69.8 °F 100% 30.00 in 9.0 mi Calm Calm - N/A   Clear
11:55 PM 69.8 °F - 69.8 °F 100% 30.00 in 10.0 mi Calm Calm - N/A   Clear